Back to catalog

NOAA 16 DEB

AliveSSO
NORAD 41138·DEBRIS·🇺🇸 United States

Launched Sep 21, 2000 from Vandenberg Space Force Base

Loading…

Next Passes (next 24 hours)

TLE

FreshSource: Space-Track

Epoch: Sep 14, 2026, 11:12 UTC

1 41138U 00055BV  26257.46704577 -.00000795  00000-0 -31069-3 0  9994
2 41138  98.7020 342.2874 0012908 118.8722 241.3755 14.26593076557001

Track NOAA 16 DEB in real time with AllMySat

Download on the App Store